Find GGSE 5

NORAD ID: 2834 Int'l Des: 1967-053 Owner: NRO/NRL Country: US operational
LEOCIRCULAR

Aktuelle Ansicht

3D-Globus wird geladen...

Über GGSE 5

Beschreibung wird geladen...

Nächste Überflüge

Passes for default location (London). Set your location on the main map for personalized predictions.

Höhenverlauf

Loading altitude history...

Zweizeiliger Elementsatz

1 2834U 67053D 26150.47351100 .00000040 00000-0 67557-4 0 9991
2 2834 69.9708 170.9819 0009808 242.0295 117.9818 13.96189106 3677
Epoch: 30. Mai 2026 • Age: 20 hours

Aktueller Status

Höhe 905.9 km
Geschwindigkeit 7.40 km/s
Subsatellitenpunkt 2.01°N, 7.22°W
Typ other

Most Searched